Time,TemperatureF,DewpointF,PressureIn,WindDirection,WindDirectionDegrees,WindSpeedMPH,WindSpeedGustMPH,Humidity,HourlyPrecipIn,Conditions,Clouds,dailyrainin,SoftwareType,DateUTC
2013-03-28 00:02:00,36.3,27.1,29.72,NE,45,0.0,0.9,69,0.00,,,0.00,WUHU21623XXSP,2013-03-27 23:02:00,
2013-03-28 00:07:00,36.1,27.3,29.72,ENE,67,0.0,0.0,70,0.00,,,0.00,WUHU21623XXSP,2013-03-27 23:07:00,
2013-03-28 00:12:00,36.1,27.3,29.72,ENE,67,0.0,0.0,70,0.00,,,0.00,WUHU21623XXSP,2013-03-27 23:12:00,
2013-03-28 00:17:00,36.0,27.5,29.72,NE,45,0.0,0.0,71,0.00,,,0.00,WUHU21623XXSP,2013-03-27 23:17:00,
2013-03-28 00:22:00,36.1,27.6,29.72,NE,45,0.0,0.0,71,0.00,,,0.00,WUHU21623XXSP,2013-03-27 23:22:00,
2013-03-28 00:27:00,36.3,27.8,29.72,ENE,67,0.0,0.0,71,0.00,,,0.00,WUHU21623XXSP,2013-03-27 23:27:00,
2013-03-28 00:32:00,36.5,28.2,29.72,ENE,67,0.0,0.0,71,0.00,,,0.00,WUHU21623XXSP,2013-03-27 23:32:00,
2013-03-28 00:37:00,36.7,27.9,29.72,NNE,22,0.0,0.9,70,0.00,,,0.00,WUHU21623XXSP,2013-03-27 23:37:00,
2013-03-28 00:42:00,36.7,27.9,29.72,ENE,67,1.1,1.1,70,0.00,,,0.00,WUHU21623XXSP,2013-03-27 23:42:00,
2013-03-28 00:47:00,36.9,28.0,29.72,ENE,67,0.9,2.0,70,0.00,,,0.00,WUHU21623XXSP,2013-03-27 23:47:00,
2013-03-28 00:52:00,37.0,28.2,29.72,NE,45,0.0,2.0,70,0.00,,,0.00,WUHU21623XXSP,2013-03-27 23:52:00,
2013-03-28 00:57:00,37.0,27.8,29.72,ENE,67,0.0,1.1,69,0.00,,,0.00,WUHU21623XXSP,2013-03-27 23:57:00,
2013-03-28 01:02:00,37.2,27.8,29.72,ENE,67,0.0,1.1,69,0.00,,,0.00,WUHU21623XXSP,2013-03-28 00:02:00,
2013-03-28 01:07:00,37.2,28.0,29.72,NE,45,0.0,2.0,69,0.00,,,0.00,WUHU21623XXSP,2013-03-28 00:07:00,
2013-03-28 01:12:00,37.2,28.0,29.72,ENE,67,0.0,2.0,69,0.00,,,0.00,WUHU21623XXSP,2013-03-28 00:12:00,
2013-03-28 01:17:00,37.2,28.0,29.72,ESE,112,0.0,1.3,69,0.00,,,0.00,WUHU21623XXSP,2013-03-28 00:17:00,
2013-03-28 01:22:00,37.2,28.0,29.72,ENE,67,0.0,1.3,69,0.00,,,0.00,WUHU21623XXSP,2013-03-28 00:22:00,
2013-03-28 01:27:00,37.2,28.0,29.72,ENE,67,0.0,2.0,69,0.00,,,0.00,WUHU21623XXSP,2013-03-28 00:27:00,
2013-03-28 01:32:00,37.2,28.0,29.72,East,90,1.6,2.0,69,0.00,,,0.00,WUHU21623XXSP,2013-03-28 00:32:00,
2013-03-28 01:37:00,37.0,27.8,29.72,SE,135,0.0,3.4,69,0.00,,,0.00,WUHU21623XXSP,2013-03-28 00:37:00,
2013-03-28 01:42:00,36.9,27.7,29.72,SSE,157,1.8,3.4,69,0.00,,,0.00,WUHU21623XXSP,2013-03-28 00:42:00,
2013-03-28 01:48:00,36.7,27.9,29.72,ENE,67,0.0,3.6,70,0.00,,,0.00,WUHU21623XXSP,2013-03-28 00:48:00,
2013-03-28 01:53:00,36.7,27.9,29.72,ESE,112,1.1,4.0,70,0.00,,,0.00,WUHU21623XXSP,2013-03-28 00:53:00,
2013-03-28 01:58:00,36.7,27.9,29.72,East,90,1.6,4.0,70,0.00,,,0.00,WUHU21623XXSP,2013-03-28 00:58:00,
2013-03-28 02:03:00,36.5,27.7,29.72,ENE,67,0.0,1.6,70,0.00,,,0.00,WUHU21623XXSP,2013-03-28 01:03:00,
2013-03-28 02:08:00,36.5,27.7,29.72,ENE,67,1.6,1.6,70,0.00,,,0.00,WUHU21623XXSP,2013-03-28 01:08:00,
2013-03-28 02:13:00,36.5,28.0,29.72,ENE,67,0.0,1.6,71,0.00,,,0.00,WUHU21623XXSP,2013-03-28 01:13:00,
2013-03-28 02:18:00,36.5,28.0,29.72,East,90,0.0,1.6,71,0.00,,,0.00,WUHU21623XXSP,2013-03-28 01:18:00,
2013-03-28 02:23:00,36.5,28.0,29.72,NE,45,0.0,1.6,71,0.00,,,0.00,WUHU21623XXSP,2013-03-28 01:23:00,
2013-03-28 02:28:00,36.5,28.0,29.72,ENE,67,0.0,0.0,71,0.00,,,0.00,WUHU21623XXSP,2013-03-28 01:28:00,
2013-03-28 02:33:00,36.5,28.0,29.71,ENE,67,0.0,0.0,71,0.00,,,0.00,WUHU21623XXSP,2013-03-28 01:33:00,
2013-03-28 02:38:00,36.3,27.8,29.72,ENE,67,0.9,0.9,71,0.00,,,0.00,WUHU21623XXSP,2013-03-28 01:38:00,
2013-03-28 02:43:00,36.3,27.8,29.71,ESE,112,1.3,2.2,71,0.00,,,0.00,WUHU21623XXSP,2013-03-28 01:43:00,
2013-03-28 02:48:00,36.3,27.8,29.71,ENE,67,0.0,2.2,71,0.00,,,0.00,WUHU21623XXSP,2013-03-28 01:48:00,
2013-03-28 02:53:00,36.3,28.1,29.71,ENE,67,0.0,1.6,72,0.00,,,0.00,WUHU21623XXSP,2013-03-28 01:53:00,
2013-03-28 02:58:00,36.3,27.8,29.71,East,90,0.0,2.0,71,0.00,,,0.00,WUHU21623XXSP,2013-03-28 01:58:00,
2013-03-28 03:03:00,36.3,27.8,29.71,NE,45,0.0,2.2,71,0.00,,,0.00,WUHU21623XXSP,2013-03-28 02:03:00,
2013-03-28 03:08:00,36.3,27.8,29.71,ENE,67,0.0,2.5,71,0.00,,,0.00,WUHU21623XXSP,2013-03-28 02:08:00,
2013-03-28 03:13:00,36.3,27.8,29.71,East,90,0.0,2.5,71,0.00,,,0.00,WUHU21623XXSP,2013-03-28 02:13:00,
2013-03-28 03:18:00,36.3,28.1,29.71,NE,45,2.5,2.9,72,0.00,,,0.00,WUHU21623XXSP,2013-03-28 02:18:00,
2013-03-28 03:23:00,36.3,28.1,29.70,ENE,67,0.0,3.1,72,0.00,,,0.00,WUHU21623XXSP,2013-03-28 02:23:00,
2013-03-28 03:28:00,36.3,28.1,29.71,ENE,67,0.9,3.1,72,0.00,,,0.00,WUHU21623XXSP,2013-03-28 02:28:00,
2013-03-28 03:33:00,36.3,28.1,29.71,ENE,67,2.0,2.9,72,0.00,,,0.00,WUHU21623XXSP,2013-03-28 02:33:00,
2013-03-28 03:38:00,36.3,28.1,29.71,ENE,67,0.0,2.9,72,0.00,,,0.00,WUHU21623XXSP,2013-03-28 02:38:00,
2013-03-28 03:43:00,36.3,28.1,29.71,ENE,67,2.0,3.4,72,0.00,,,0.00,WUHU21623XXSP,2013-03-28 02:43:00,
2013-03-28 03:48:00,36.3,28.1,29.71,NE,45,0.0,3.4,72,0.00,,,0.00,WUHU21623XXSP,2013-03-28 02:48:00,
2013-03-28 03:53:00,36.3,28.1,29.70,ENE,67,0.0,2.0,72,0.00,,,0.00,WUHU21623XXSP,2013-03-28 02:53:00,
2013-03-28 03:58:00,36.3,28.1,29.70,ESE,112,0.0,1.3,72,0.00,,,0.00,WUHU21623XXSP,2013-03-28 02:58:00,
2013-03-28 04:03:00,36.3,28.1,29.71,East,90,0.0,2.0,72,0.00,,,0.00,WUHU21623XXSP,2013-03-28 03:03:00,
2013-03-28 04:08:00,36.3,28.1,29.70,ESE,112,0.0,2.0,72,0.00,,,0.00,WUHU21623XXSP,2013-03-28 03:08:00,
2013-03-28 04:13:00,36.3,28.1,29.70,SE,135,0.0,2.5,72,0.00,,,0.00,WUHU21623XXSP,2013-03-28 03:13:00,
2013-03-28 04:18:00,36.3,28.1,29.70,ENE,67,0.0,2.5,72,0.00,,,0.00,WUHU21623XXSP,2013-03-28 03:18:00,
2013-03-28 04:23:00,36.1,28.0,29.70,East,90,0.0,1.8,72,0.00,,,0.00,WUHU21623XXSP,2013-03-28 03:23:00,
2013-03-28 04:28:00,36.1,28.0,29.70,East,90,1.6,1.8,72,0.00,,,0.00,WUHU21623XXSP,2013-03-28 03:28:00,
2013-03-28 04:33:00,36.1,28.0,29.70,ENE,67,0.0,1.8,72,0.00,,,0.00,WUHU21623XXSP,2013-03-28 03:33:00,
2013-03-28 04:38:00,36.1,28.0,29.71,ENE,67,2.7,2.7,72,0.00,,,0.00,WUHU21623XXSP,2013-03-28 03:38:00,
2013-03-28 04:43:00,36.1,28.0,29.71,ESE,112,0.0,2.7,72,0.00,,,0.00,WUHU21623XXSP,2013-03-28 03:43:00,
2013-03-28 04:48:00,36.1,28.0,29.71,NE,45,2.9,2.9,72,0.00,,,0.00,WUHU21623XXSP,2013-03-28 03:48:00,
2013-03-28 04:53:00,36.1,28.0,29.71,ENE,67,2.0,2.9,72,0.00,,,0.00,WUHU21623XXSP,2013-03-28 03:53:00,
2013-03-28 04:58:00,36.1,28.0,29.70,ENE,67,0.0,2.0,72,0.00,,,0.00,WUHU21623XXSP,2013-03-28 03:58:00,
2013-03-28 05:00:00,36.1,28.0,29.70,NNE,22,0.0,2.0,72,0.00,,,0.00,WUHU21623XXSP,2013-03-28 04:00:00,
2013-03-28 05:05:00,36.1,28.0,29.70,ENE,67,2.2,2.2,72,0.00,,,0.00,WUHU21623XXSP,2013-03-28 04:05:00,
2013-03-28 05:10:00,36.1,28.3,29.71,NE,45,0.0,2.2,73,0.00,,,0.00,WUHU21623XXSP,2013-03-28 04:10:00,
2013-03-28 05:15:00,36.1,28.3,29.71,NE,45,0.0,2.0,73,0.00,,,0.00,WUHU21623XXSP,2013-03-28 04:15:00,
2013-03-28 05:20:00,36.0,28.4,29.71,NE,45,0.0,1.8,74,0.00,,,0.00,WUHU21623XXSP,2013-03-28 04:20:00,
2013-03-28 05:25:00,36.1,28.6,29.71,NE,45,0.0,0.0,74,0.00,,,0.00,WUHU21623XXSP,2013-03-28 04:25:00,
2013-03-28 05:30:00,36.0,28.4,29.71,NNW,337,0.0,0.0,74,0.00,,,0.00,WUHU21623XXSP,2013-03-28 04:30:00,
2013-03-28 05:35:00,35.8,28.3,29.71,NNW,337,0.0,0.0,74,0.00,,,0.00,WUHU21623XXSP,2013-03-28 04:35:00,
2013-03-28 05:40:00,35.8,28.3,29.71,NNW,337,0.0,0.0,74,0.00,,,0.00,WUHU21623XXSP,2013-03-28 04:40:00,
2013-03-28 05:45:00,35.6,28.4,29.71,NNW,337,0.0,0.0,75,0.00,,,0.00,WUHU21623XXSP,2013-03-28 04:45:00,
2013-03-28 05:50:00,35.6,28.4,29.70,NE,45,0.0,0.7,75,0.00,,,0.00,WUHU21623XXSP,2013-03-28 04:50:00,
2013-03-28 05:55:00,35.8,28.6,29.71,North,0,0.0,0.7,75,0.00,,,0.00,WUHU21623XXSP,2013-03-28 04:55:00,
2013-03-28 06:00:00,36.0,28.4,29.71,NNE,22,0.0,0.0,74,0.00,,,0.00,WUHU21623XXSP,2013-03-28 05:00:00,
2013-03-28 06:05:00,36.0,28.4,29.71,NNE,22,2.0,2.0,74,0.00,,,0.00,WUHU21623XXSP,2013-03-28 05:05:00,
2013-03-28 06:10:00,36.1,28.6,29.71,NE,45,1.6,2.0,74,0.00,,,0.00,WUHU21623XXSP,2013-03-28 05:10:00,
2013-03-28 06:15:00,36.0,28.1,29.71,NNE,22,2.2,2.2,73,0.00,,,0.00,WUHU21623XXSP,2013-03-28 05:15:00,
2013-03-28 06:20:00,35.8,27.9,29.71,ENE,67,0.0,2.2,73,0.00,,,0.00,WUHU21623XXSP,2013-03-28 05:20:00,
2013-03-28 06:25:00,35.8,27.9,29.71,North,0,2.0,2.0,73,0.00,,,0.00,WUHU21623XXSP,2013-03-28 05:25:00,
2013-03-28 06:30:00,35.8,28.3,29.71,NNE,22,0.0,2.0,74,0.00,,,0.00,WUHU21623XXSP,2013-03-28 05:30:00,
2013-03-28 06:35:00,35.8,28.3,29.71,NE,45,0.0,1.6,74,0.00,,,0.00,WUHU21623XXSP,2013-03-28 05:35:00,
2013-03-28 06:40:00,35.4,27.9,29.71,NE,45,2.2,2.7,74,0.00,,,0.00,WUHU21623XXSP,2013-03-28 05:40:00,
2013-03-28 06:45:00,35.4,27.9,29.71,ENE,67,0.0,2.7,74,0.00,,,0.00,WUHU21623XXSP,2013-03-28 05:45:00,
2013-03-28 06:50:00,35.6,28.1,29.71,NE,45,0.0,2.2,74,0.00,,,0.00,WUHU21623XXSP,2013-03-28 05:50:00,
2013-03-28 06:55:00,35.8,28.3,29.71,NE,45,0.0,1.8,74,0.00,,,0.00,WUHU21623XXSP,2013-03-28 05:55:00,
2013-03-28 07:00:00,35.8,28.3,29.71,NE,45,0.9,2.5,74,0.00,,,0.00,WUHU21623XXSP,2013-03-28 06:00:00,
2013-03-28 07:05:00,35.8,28.3,29.71,ENE,67,0.0,2.5,74,0.00,,,0.00,WUHU21623XXSP,2013-03-28 06:05:00,
2013-03-28 07:10:00,35.8,28.3,29.71,NE,45,0.0,2.0,74,0.00,,,0.00,WUHU21623XXSP,2013-03-28 06:10:00,
2013-03-28 07:15:00,35.8,28.3,29.71,NE,45,0.0,2.0,74,0.00,,,0.00,WUHU21623XXSP,2013-03-28 06:15:00,
2013-03-28 07:20:00,36.0,28.4,29.71,NNE,22,0.0,0.0,74,0.00,,,0.00,WUHU21623XXSP,2013-03-28 06:20:00,
2013-03-28 07:25:00,36.0,28.4,29.71,NNE,22,0.0,1.8,74,0.00,,,0.00,WUHU21623XXSP,2013-03-28 06:25:00,
2013-03-28 07:30:00,36.0,28.4,29.71,NE,45,0.0,1.8,74,0.00,,,0.00,WUHU21623XXSP,2013-03-28 06:30:00,
2013-03-28 07:35:00,36.1,28.6,29.71,NNE,22,0.0,1.1,74,0.00,,,0.00,WUHU21623XXSP,2013-03-28 06:35:00,
2013-03-28 07:40:00,36.1,28.6,29.71,NE,45,0.0,2.0,74,0.00,,,0.00,WUHU21623XXSP,2013-03-28 06:40:00,
2013-03-28 07:45:00,36.3,28.8,29.72,NNE,22,1.8,2.0,74,0.00,,,0.00,WUHU21623XXSP,2013-03-28 06:45:00,
2013-03-28 07:50:00,36.3,28.8,29.72,North,0,0.0,1.8,74,0.00,,,0.00,WUHU21623XXSP,2013-03-28 06:50:00,
2013-03-28 07:55:00,36.3,28.8,29.72,North,0,0.0,0.0,74,0.00,,,0.00,WUHU21623XXSP,2013-03-28 06:55:00,
2013-03-28 08:00:00,36.3,28.8,29.71,NNE,22,1.6,1.6,74,0.00,,,0.00,WUHU21623XXSP,2013-03-28 07:00:00,
2013-03-28 08:05:00,36.5,28.7,29.72,North,0,0.0,1.6,73,0.00,,,0.00,WUHU21623XXSP,2013-03-28 07:05:00,
2013-03-28 08:10:00,36.7,28.5,29.72,NNE,22,2.5,2.5,72,0.00,,,0.00,WUHU21623XXSP,2013-03-28 07:10:00,
2013-03-28 08:15:00,37.0,28.5,29.71,NE,45,2.5,4.0,71,0.00,,,0.00,WUHU21623XXSP,2013-03-28 07:15:00,
2013-03-28 08:20:00,37.0,28.2,29.72,NE,45,2.0,4.0,70,0.00,,,0.00,WUHU21623XXSP,2013-03-28 07:20:00,
2013-03-28 08:25:00,37.2,28.4,29.72,NE,45,0.0,3.8,70,0.00,,,0.00,WUHU21623XXSP,2013-03-28 07:25:00,
2013-03-28 08:30:00,37.2,28.7,29.72,NNE,22,1.3,2.5,71,0.00,,,0.00,WUHU21623XXSP,2013-03-28 07:30:00,
2013-03-28 08:35:00,37.4,28.9,29.72,NE,45,2.0,2.9,71,0.00,,,0.00,WUHU21623XXSP,2013-03-28 07:35:00,
2013-03-28 08:40:00,37.6,28.7,29.72,North,0,2.2,2.9,70,0.00,,,0.00,WUHU21623XXSP,2013-03-28 07:40:00,
2013-03-28 08:45:00,37.4,28.9,29.72,NNE,22,0.0,2.5,71,0.00,,,0.00,WUHU21623XXSP,2013-03-28 07:45:00,
2013-03-28 08:50:00,37.6,29.1,29.72,NNE,22,0.0,2.9,71,0.00,,,0.00,WUHU21623XXSP,2013-03-28 07:50:00,
2013-03-28 08:55:00,37.6,29.1,29.72,NW,315,2.0,2.9,71,0.00,,,0.00,WUHU21623XXSP,2013-03-28 07:55:00,
2013-03-28 09:00:00,37.6,29.1,29.72,NNE,22,1.6,2.0,71,0.00,,,0.00,WUHU21623XXSP,2013-03-28 08:00:00,
2013-03-28 09:05:00,37.6,29.1,29.72,NNE,22,0.9,2.0,71,0.00,,,0.00,WUHU21623XXSP,2013-03-28 08:05:00,
2013-03-28 09:10:00,37.9,29.1,29.72,ENE,67,2.5,3.6,70,0.00,,,0.00,WUHU21623XXSP,2013-03-28 08:10:00,
2013-03-28 09:15:00,38.3,29.4,29.73,NNE,22,2.2,3.6,70,0.00,,,0.00,WUHU21623XXSP,2013-03-28 08:15:00,
2013-03-28 09:20:00,38.5,29.2,29.73,NNE,22,2.9,2.9,69,0.00,,,0.00,WUHU21623XXSP,2013-03-28 08:20:00,
2013-03-28 09:25:00,38.5,29.2,29.73,NNE,22,0.0,2.9,69,0.00,,,0.00,WUHU21623XXSP,2013-03-28 08:25:00,
2013-03-28 09:30:00,38.5,28.8,29.72,NW,315,0.0,0.7,68,0.00,,,0.00,WUHU21623XXSP,2013-03-28 08:30:00,
2013-03-28 09:35:00,39.0,29.1,29.72,North,0,1.8,3.1,68,0.00,,,0.00,WUHU21623XXSP,2013-03-28 08:35:00,
2013-03-28 09:40:00,39.6,29.8,29.72,NNW,337,0.0,3.1,68,0.00,,,0.00,WUHU21623XXSP,2013-03-28 08:40:00,
2013-03-28 09:45:00,39.6,29.4,29.72,NW,315,0.0,4.9,67,0.00,,,0.00,WUHU21623XXSP,2013-03-28 08:45:00,
2013-03-28 09:50:00,39.6,29.0,29.72,NNE,22,3.1,4.9,66,0.00,,,0.00,WUHU21623XXSP,2013-03-28 08:50:00,
2013-03-28 09:55:00,39.7,29.2,29.72,WNW,292,0.9,3.1,66,0.00,,,0.00,WUHU21623XXSP,2013-03-28 08:55:00,
2013-03-28 10:00:00,39.9,29.4,29.72,North,0,1.3,2.9,66,0.00,,,0.00,WUHU21623XXSP,2013-03-28 09:00:00,
2013-03-28 10:05:00,39.9,29.4,29.72,WNW,292,2.9,3.1,66,0.00,,,0.00,WUHU21623XXSP,2013-03-28 09:05:00,
2013-03-28 10:10:00,40.1,29.6,29.72,NNW,337,0.0,3.1,66,0.00,,,0.00,WUHU21623XXSP,2013-03-28 09:10:00,
2013-03-28 10:15:00,41.2,30.3,29.73,NW,315,3.6,3.6,65,0.00,,,0.00,WUHU21623XXSP,2013-03-28 09:15:00,
2013-03-28 10:20:00,41.4,30.5,29.73,NW,315,0.0,4.3,65,0.00,,,0.00,WUHU21623XXSP,2013-03-28 09:20:00,
2013-03-28 10:25:00,41.5,30.2,29.73,NW,315,0.0,4.3,64,0.00,,,0.00,WUHU21623XXSP,2013-03-28 09:25:00,
2013-03-28 10:30:00,41.4,29.3,29.73,North,0,3.6,3.6,62,0.00,,,0.00,WUHU21623XXSP,2013-03-28 09:30:00,
2013-03-28 10:35:00,41.9,29.8,29.73,North,0,0.0,4.3,62,0.00,,,0.00,WUHU21623XXSP,2013-03-28 09:35:00,
2013-03-28 10:40:00,42.1,29.6,29.73,WNW,292,2.0,4.3,61,0.00,,,0.00,WUHU21623XXSP,2013-03-28 09:40:00,
2013-03-28 10:45:00,42.6,30.1,29.72,WSW,247,2.2,3.4,61,0.00,,,0.00,WUHU21623XXSP,2013-03-28 09:45:00,
2013-03-28 10:50:00,43.0,30.0,29.72,WNW,292,3.8,3.8,60,0.00,,,0.00,WUHU21623XXSP,2013-03-28 09:50:00,
2013-03-28 10:55:00,43.3,30.4,29.72,West,270,0.0,3.8,60,0.00,,,0.00,WUHU21623XXSP,2013-03-28 09:55:00,
2013-03-28 11:00:00,43.5,29.7,29.72,NE,45,4.5,7.2,58,0.00,,,0.00,WUHU21623XXSP,2013-03-28 10:00:00,
2013-03-28 11:05:00,43.7,30.3,29.72,WNW,292,3.8,7.2,59,0.00,,,0.00,WUHU21623XXSP,2013-03-28 10:05:00,
2013-03-28 11:10:00,43.9,30.0,29.72,NE,45,3.1,5.1,58,0.00,,,0.00,WUHU21623XXSP,2013-03-28 10:10:00,
2013-03-28 11:15:00,43.2,29.5,29.72,NNE,22,4.9,5.1,58,0.00,,,0.00,WUHU21623XXSP,2013-03-28 10:15:00,
2013-03-28 11:20:00,42.6,28.8,29.72,NW,315,1.3,4.9,58,0.00,,,0.00,WUHU21623XXSP,2013-03-28 10:20:00,
2013-03-28 11:25:00,42.8,29.4,29.72,NW,315,1.6,3.6,59,0.00,,,0.00,WUHU21623XXSP,2013-03-28 10:25:00,
2013-03-28 11:30:00,43.0,29.1,29.72,NW,315,3.1,3.6,58,0.00,,,0.00,WUHU21623XXSP,2013-03-28 10:30:00,
2013-03-28 11:35:00,43.0,29.1,29.72,West,270,4.0,4.0,58,0.00,,,0.00,WUHU21623XXSP,2013-03-28 10:35:00,
2013-03-28 11:40:00,42.1,28.3,29.72,WNW,292,4.0,4.0,58,0.00,,,0.00,WUHU21623XXSP,2013-03-28 10:40:00,
2013-03-28 11:45:00,41.5,27.8,29.72,WNW,292,8.5,8.5,58,0.00,,,0.00,WUHU21623XXSP,2013-03-28 10:45:00,
2013-03-28 11:50:00,41.5,28.3,29.72,North,0,0.7,8.5,59,0.00,,,0.00,WUHU21623XXSP,2013-03-28 10:50:00,
2013-03-28 11:55:00,40.8,28.4,29.72,NNW,337,0.0,6.9,61,0.00,,,0.00,WUHU21623XXSP,2013-03-28 10:55:00,
2013-03-28 12:00:00,40.3,29.0,29.73,NNE,22,2.7,7.6,64,0.00,,,0.00,WUHU21623XXSP,2013-03-28 11:00:00,
2013-03-28 12:05:00,40.1,29.2,29.72,NE,45,4.0,7.6,65,0.00,,,0.00,WUHU21623XXSP,2013-03-28 11:05:00,
2013-03-28 12:10:00,39.9,29.4,29.73,North,0,2.9,4.0,66,0.00,,,0.00,WUHU21623XXSP,2013-03-28 11:10:00,
2013-03-28 12:15:00,40.3,30.1,29.72,NE,45,5.8,5.8,67,0.00,,,0.00,WUHU21623XXSP,2013-03-28 11:15:00,
2013-03-28 12:20:00,40.6,29.8,29.72,North,0,0.0,6.0,65,0.00,,,0.00,WUHU21623XXSP,2013-03-28 11:20:00,
2013-03-28 12:25:00,41.2,30.3,29.72,NNW,337,0.0,6.0,65,0.00,,,0.00,WUHU21623XXSP,2013-03-28 11:25:00,
2013-03-28 12:30:00,41.5,29.5,29.72,NE,45,3.6,4.7,62,0.00,,,0.00,WUHU21623XXSP,2013-03-28 11:30:00,
2013-03-28 12:35:00,41.5,29.1,29.72,NE,45,2.7,4.7,61,0.00,,,0.00,WUHU21623XXSP,2013-03-28 11:35:00,
2013-03-28 12:40:00,41.9,29.4,29.73,SE,135,0.0,2.7,61,0.00,,,0.00,WUHU21623XXSP,2013-03-28 11:40:00,
2013-03-28 12:45:00,42.1,29.8,29.72,ENE,67,1.6,2.0,62,0.00,,,0.00,WUHU21623XXSP,2013-03-28 11:45:00,
2013-03-28 12:50:00,41.7,29.6,29.72,WSW,247,0.0,3.4,62,0.00,,,0.00,WUHU21623XXSP,2013-03-28 11:50:00,
2013-03-28 12:55:00,41.5,29.8,29.72,ESE,112,1.6,5.6,63,0.00,,,0.00,WUHU21623XXSP,2013-03-28 11:55:00,
2013-03-28 13:00:00,40.8,30.3,29.72,NNE,22,2.9,5.6,66,0.00,,,0.00,WUHU21623XXSP,2013-03-28 12:00:00,
2013-03-28 13:05:00,41.0,30.5,29.72,NNE,22,3.1,5.1,66,0.00,,,0.00,WUHU21623XXSP,2013-03-28 12:05:00,
2013-03-28 13:10:00,41.5,31.0,29.72,ENE,67,0.0,3.6,66,0.00,,,0.00,WUHU21623XXSP,2013-03-28 12:10:00,
2013-03-28 13:15:00,43.0,31.6,29.72,ESE,112,1.3,2.0,64,0.00,,,0.00,WUHU21623XXSP,2013-03-28 12:15:00,
2013-03-28 13:20:00,43.7,31.5,29.72,ESE,112,2.0,2.0,62,0.00,,,0.00,WUHU21623XXSP,2013-03-28 12:20:00,
2013-03-28 13:25:00,43.9,31.3,29.72,NW,315,0.0,2.5,61,0.00,,,0.00,WUHU21623XXSP,2013-03-28 12:25:00,
2013-03-28 13:30:00,43.7,31.1,29.72,WNW,292,0.0,2.9,61,0.00,,,0.00,WUHU21623XXSP,2013-03-28 12:30:00,
2013-03-28 13:35:00,43.0,30.8,29.72,NW,315,2.2,8.1,62,0.00,,,0.00,WUHU21623XXSP,2013-03-28 12:35:00,
2013-03-28 13:40:00,42.4,30.7,29.72,NNW,337,2.0,8.1,63,0.00,,,0.00,WUHU21623XXSP,2013-03-28 12:40:00,
2013-03-28 13:45:00,41.7,30.8,29.72,NNE,22,5.8,5.8,65,0.00,,,0.00,WUHU21623XXSP,2013-03-28 12:45:00,
2013-03-28 13:50:00,42.1,30.7,29.72,NNE,22,5.1,9.8,64,0.00,,,0.00,WUHU21623XXSP,2013-03-28 12:50:00,
2013-03-28 13:55:00,43.0,31.2,29.72,NNE,22,6.5,9.8,63,0.00,,,0.00,WUHU21623XXSP,2013-03-28 12:55:00,
2013-03-28 14:00:00,44.2,31.3,29.72,North,0,5.1,6.5,60,0.00,,,0.00,WUHU21623XXSP,2013-03-28 13:00:00,
2013-03-28 14:05:00,45.1,31.7,29.72,NNW,337,2.5,6.0,59,0.00,,,0.00,WUHU21623XXSP,2013-03-28 13:05:00,
2013-03-28 14:10:00,45.1,29.0,29.72,NE,45,6.0,6.0,53,0.00,,,0.00,WUHU21623XXSP,2013-03-28 13:10:00,
2013-03-28 14:15:00,45.0,29.3,29.72,West,270,1.8,6.0,54,0.00,,,0.00,WUHU21623XXSP,2013-03-28 13:15:00,
2013-03-28 14:20:00,44.4,27.9,29.72,NNW,337,0.9,6.3,52,0.00,,,0.00,WUHU21623XXSP,2013-03-28 13:20:00,
2013-03-28 14:25:00,44.8,28.7,29.72,North,0,4.9,9.2,53,0.00,,,0.00,WUHU21623XXSP,2013-03-28 13:25:00,
2013-03-28 14:30:00,43.7,27.6,29.72,NW,315,5.8,9.2,53,0.00,,,0.00,WUHU21623XXSP,2013-03-28 13:30:00,
2013-03-28 14:35:00,43.7,28.1,29.72,WNW,292,0.0,7.4,54,0.00,,,0.00,WUHU21623XXSP,2013-03-28 13:35:00,
2013-03-28 14:40:00,43.3,28.6,29.72,NE,45,1.1,4.5,56,0.00,,,0.00,WUHU21623XXSP,2013-03-28 13:40:00,
2013-03-28 14:45:00,43.0,30.4,29.72,NNW,337,2.5,8.3,61,0.00,,,0.00,WUHU21623XXSP,2013-03-28 13:45:00,
2013-03-28 14:50:00,41.9,30.2,29.72,North,0,1.6,8.3,63,0.00,,,0.00,WUHU21623XXSP,2013-03-28 13:50:00,
2013-03-28 14:55:00,41.5,30.2,29.72,NNW,337,6.5,6.5,64,0.00,,,0.00,WUHU21623XXSP,2013-03-28 13:55:00,
2013-03-28 15:00:00,41.7,30.8,29.72,North,0,3.8,10.3,65,0.00,,,0.00,WUHU21623XXSP,2013-03-28 14:00:00,
2013-03-28 15:05:00,41.9,31.0,29.72,NW,315,3.8,10.3,65,0.00,,,0.00,WUHU21623XXSP,2013-03-28 14:05:00,
2013-03-28 15:10:00,42.4,31.1,29.73,NW,315,3.1,7.6,64,0.00,,,0.00,WUHU21623XXSP,2013-03-28 14:10:00,
2013-03-28 15:15:00,42.1,30.3,29.73,NW,315,2.9,7.6,63,0.00,,,0.00,WUHU21623XXSP,2013-03-28 14:15:00,
2013-03-28 15:20:00,42.1,30.3,29.73,NNE,22,0.0,5.6,63,0.00,,,0.00,WUHU21623XXSP,2013-03-28 14:20:00,
2013-03-28 15:25:00,42.4,30.3,29.74,WSW,247,1.6,4.5,62,0.00,,,0.00,WUHU21623XXSP,2013-03-28 14:25:00,
2013-03-28 15:30:00,42.4,30.3,29.73,NW,315,2.7,3.8,62,0.00,,,0.00,WUHU21623XXSP,2013-03-28 14:30:00,
2013-03-28 15:35:00,42.4,30.3,29.73,NW,315,2.2,3.6,62,0.00,,,0.00,WUHU21623XXSP,2013-03-28 14:35:00,
2013-03-28 15:40:00,42.6,30.5,29.74,WSW,247,0.0,5.1,62,0.00,,,0.00,WUHU21623XXSP,2013-03-28 14:40:00,
2013-03-28 15:45:00,42.4,30.3,29.73,WSW,247,1.6,9.2,62,0.00,,,0.00,WUHU21623XXSP,2013-03-28 14:45:00,
2013-03-28 15:50:00,42.1,30.0,29.73,West,270,2.9,9.2,62,0.00,,,0.00,WUHU21623XXSP,2013-03-28 14:50:00,
2013-03-28 15:55:00,42.4,30.3,29.73,West,270,3.6,8.3,62,0.00,,,0.00,WUHU21623XXSP,2013-03-28 14:55:00,
2013-03-28 16:00:00,42.4,29.5,29.74,West,270,3.1,6.7,60,0.00,,,0.00,WUHU21623XXSP,2013-03-28 15:00:00,
2013-03-28 16:05:00,42.6,29.2,29.73,WSW,247,4.0,5.8,59,0.00,,,0.00,WUHU21623XXSP,2013-03-28 15:05:00,
2013-03-28 16:10:00,43.0,29.6,29.73,North,0,2.2,8.5,59,0.00,,,0.00,WUHU21623XXSP,2013-03-28 15:10:00,
2013-03-28 16:15:00,43.0,29.1,29.74,WNW,292,4.9,8.5,58,0.00,,,0.00,WUHU21623XXSP,2013-03-28 15:15:00,
2013-03-28 16:20:00,43.7,30.3,29.74,West,270,2.5,4.9,59,0.00,,,0.00,WUHU21623XXSP,2013-03-28 15:20:00,
2013-03-28 16:25:00,44.8,30.9,29.73,WSW,247,2.9,3.6,58,0.00,,,0.00,WUHU21623XXSP,2013-03-28 15:25:00,
2013-03-28 16:30:00,45.0,30.6,29.74,WNW,292,6.0,6.0,57,0.00,,,0.00,WUHU21623XXSP,2013-03-28 15:30:00,
2013-03-28 16:35:00,43.9,29.6,29.74,NW,315,2.5,6.0,57,0.00,,,0.00,WUHU21623XXSP,2013-03-28 15:35:00,
2013-03-28 16:40:00,43.2,29.8,29.74,NW,315,3.1,10.3,59,0.00,,,0.00,WUHU21623XXSP,2013-03-28 15:40:00,
2013-03-28 16:45:00,42.4,30.1,29.73,WNW,292,8.5,11.9,61,0.00,,,0.00,WUHU21623XXSP,2013-03-28 15:45:00,
2013-03-28 16:50:00,41.9,30.2,29.73,West,270,6.9,11.9,63,0.00,,,0.00,WUHU21623XXSP,2013-03-28 15:50:00,
2013-03-28 16:55:00,42.1,31.1,29.73,WNW,292,9.2,10.1,65,0.00,,,0.00,WUHU21623XXSP,2013-03-28 15:55:00,
2013-03-28 17:00:00,41.5,31.0,29.73,WNW,292,6.3,10.5,66,0.00,,,0.00,WUHU21623XXSP,2013-03-28 16:00:00,
2013-03-28 17:05:00,41.0,30.9,29.73,West,270,4.3,11.9,67,0.00,,,0.00,WUHU21623XXSP,2013-03-28 16:05:00,
2013-03-28 17:10:00,41.0,31.2,29.74,West,270,4.5,11.9,68,0.00,,,0.00,WUHU21623XXSP,2013-03-28 16:10:00,
2013-03-28 17:15:00,40.8,31.1,29.74,West,270,4.5,7.6,68,0.00,,,0.00,WUHU21623XXSP,2013-03-28 16:15:00,
2013-03-28 17:20:00,41.2,31.4,29.74,West,270,5.1,5.6,68,0.00,,,0.00,WUHU21623XXSP,2013-03-28 16:20:00,
2013-03-28 17:25:00,40.6,31.3,29.74,West,270,2.5,8.9,69,0.00,,,0.00,WUHU21623XXSP,2013-03-28 16:25:00,
2013-03-28 17:30:00,40.8,31.8,29.74,NNW,337,3.4,8.9,70,0.00,,,0.00,WUHU21623XXSP,2013-03-28 16:30:00,
2013-03-28 17:35:00,40.8,31.6,29.74,West,270,2.0,6.0,70,0.00,,,0.00,WUHU21623XXSP,2013-03-28 16:35:00,
2013-03-28 17:40:00,41.4,32.2,29.74,NW,315,3.6,6.0,70,0.00,,,0.00,WUHU21623XXSP,2013-03-28 16:40:00,
2013-03-28 17:45:00,41.9,32.1,29.74,West,270,3.6,8.3,68,0.00,,,0.00,WUHU21623XXSP,2013-03-28 16:45:00,
2013-03-28 17:50:00,42.4,31.9,29.74,West,270,3.6,8.3,66,0.00,,,0.00,WUHU21623XXSP,2013-03-28 16:50:00,
2013-03-28 17:55:00,42.4,31.5,29.74,West,270,5.8,6.7,65,0.00,,,0.00,WUHU21623XXSP,2013-03-28 16:55:00,
2013-03-28 18:00:00,42.4,31.5,29.74,West,270,2.9,6.0,65,0.00,,,0.00,WUHU21623XXSP,2013-03-28 17:00:00,
2013-03-28 18:05:00,42.4,31.1,29.74,NW,315,4.7,5.4,64,0.00,,,0.00,WUHU21623XXSP,2013-03-28 17:05:00,
2013-03-28 18:10:00,42.4,31.1,29.74,WNW,292,5.4,5.8,64,0.00,,,0.00,WUHU21623XXSP,2013-03-28 17:10:00,
2013-03-28 18:15:00,42.4,31.1,29.74,NW,315,4.9,6.5,64,0.00,,,0.00,WUHU21623XXSP,2013-03-28 17:15:00,
2013-03-28 18:20:00,42.3,31.3,29.74,WNW,292,6.9,9.4,65,0.00,,,0.00,WUHU21623XXSP,2013-03-28 17:20:00,
2013-03-28 18:25:00,42.1,31.1,29.75,WNW,292,6.3,9.4,65,0.00,,,0.00,WUHU21623XXSP,2013-03-28 17:25:00,
2013-03-28 18:30:00,41.4,30.8,29.75,WNW,292,3.4,6.3,66,0.00,,,0.00,WUHU21623XXSP,2013-03-28 17:30:00,
2013-03-28 18:35:00,41.2,31.0,29.75,WNW,292,6.5,6.5,67,0.00,,,0.00,WUHU21623XXSP,2013-03-28 17:35:00,
2013-03-28 18:40:00,40.8,31.1,29.76,North,0,2.5,11.6,68,0.00,,,0.00,WUHU21623XXSP,2013-03-28 17:40:00,
2013-03-28 18:45:00,40.6,30.9,29.76,North,0,1.1,11.6,68,0.00,,,0.00,WUHU21623XXSP,2013-03-28 17:45:00,
2013-03-28 18:50:00,40.5,30.7,29.76,NNW,337,0.0,6.5,68,0.00,,,0.00,WUHU21623XXSP,2013-03-28 17:50:00,
2013-03-28 18:55:00,40.3,30.5,29.76,SSE,157,0.0,6.5,68,0.00,,,0.00,WUHU21623XXSP,2013-03-28 17:55:00,
2013-03-28 19:00:00,40.3,30.5,29.76,NW,315,6.0,7.6,68,0.00,,,0.00,WUHU21623XXSP,2013-03-28 18:00:00,
2013-03-28 19:05:00,39.9,30.2,29.76,West,270,5.1,10.1,68,0.00,,,0.00,WUHU21623XXSP,2013-03-28 18:05:00,
2013-03-28 19:10:00,39.9,30.2,29.76,WNW,292,2.9,10.1,68,0.00,,,0.00,WUHU21623XXSP,2013-03-28 18:10:00,
2013-03-28 19:15:00,39.7,30.0,29.77,WNW,292,8.9,10.7,68,0.00,,,0.00,WUHU21623XXSP,2013-03-28 18:15:00,
2013-03-28 19:20:00,39.6,29.8,29.76,NW,315,2.2,10.7,68,0.00,,,0.00,WUHU21623XXSP,2013-03-28 18:20:00,
2013-03-28 19:25:00,39.4,29.6,29.77,WNW,292,4.7,7.8,68,0.00,,,0.00,WUHU21623XXSP,2013-03-28 18:25:00,
2013-03-28 19:30:00,39.4,29.6,29.77,NW,315,4.9,7.2,68,0.00,,,0.00,WUHU21623XXSP,2013-03-28 18:30:00,
2013-03-28 19:35:00,39.0,29.3,29.78,WNW,292,3.6,7.2,68,0.00,,,0.00,WUHU21623XXSP,2013-03-28 18:35:00,
2013-03-28 19:40:00,39.0,29.3,29.77,NW,315,4.3,4.9,68,0.00,,,0.00,WUHU21623XXSP,2013-03-28 18:40:00,
2013-03-28 19:45:00,39.0,29.3,29.78,NW,315,2.0,5.1,68,0.00,,,0.00,WUHU21623XXSP,2013-03-28 18:45:00,
2013-03-28 19:50:00,39.0,29.3,29.78,NW,315,6.0,6.0,68,0.00,,,0.00,WUHU21623XXSP,2013-03-28 18:50:00,
2013-03-28 19:55:00,39.0,29.7,29.79,NNW,337,2.7,6.0,69,0.00,,,0.00,WUHU21623XXSP,2013-03-28 18:55:00,
2013-03-28 20:00:00,39.2,29.8,29.79,NNW,337,1.1,3.8,69,0.00,,,0.00,WUHU21623XXSP,2013-03-28 19:00:00,
2013-03-28 20:05:00,39.0,30.0,29.79,NNE,22,0.0,3.8,70,0.00,,,0.00,WUHU21623XXSP,2013-03-28 19:05:00,
2013-03-28 20:10:00,38.8,30.2,29.80,North,0,0.0,3.8,71,0.00,,,0.00,WUHU21623XXSP,2013-03-28 19:10:00,
2013-03-28 20:15:00,38.5,30.5,29.79,NW,315,2.2,2.9,73,0.00,,,0.00,WUHU21623XXSP,2013-03-28 19:15:00,
2013-03-28 20:20:00,38.3,30.7,29.79,North,0,2.2,3.6,74,0.00,,,0.00,WUHU21623XXSP,2013-03-28 19:20:00,
2013-03-28 20:25:00,37.9,30.7,29.79,North,0,1.8,3.6,75,0.00,,,0.00,WUHU21623XXSP,2013-03-28 19:25:00,
2013-03-28 20:30:00,37.8,30.5,29.79,NW,315,0.0,2.5,75,0.00,,,0.00,WUHU21623XXSP,2013-03-28 19:30:00,
2013-03-28 20:35:00,37.6,30.4,29.80,NW,315,3.6,3.6,75,0.00,,,0.00,WUHU21623XXSP,2013-03-28 19:35:00,
2013-03-28 20:40:00,37.8,30.9,29.80,NNW,337,0.0,3.6,76,0.00,,,0.00,WUHU21623XXSP,2013-03-28 19:40:00,
2013-03-28 20:45:00,37.9,31.0,29.80,NW,315,0.0,3.4,76,0.00,,,0.00,WUHU21623XXSP,2013-03-28 19:45:00,
2013-03-28 20:50:00,37.9,31.0,29.80,East,90,0.0,3.4,76,0.00,,,0.00,WUHU21623XXSP,2013-03-28 19:50:00,
2013-03-28 20:55:00,37.9,31.0,29.80,North,0,0.0,2.9,76,0.00,,,0.00,WUHU21623XXSP,2013-03-28 19:55:00,
2013-03-28 21:00:00,38.1,31.2,29.80,WNW,292,2.9,2.9,76,0.00,,,0.00,WUHU21623XXSP,2013-03-28 20:00:00,
2013-03-28 21:05:00,38.3,31.4,29.80,NW,315,0.0,2.9,76,0.00,,,0.00,WUHU21623XXSP,2013-03-28 20:05:00,
2013-03-28 21:10:00,38.5,31.6,29.80,NW,315,4.5,5.1,76,0.00,,,0.00,WUHU21623XXSP,2013-03-28 20:10:00,
2013-03-28 21:15:00,38.5,31.6,29.80,NW,315,0.0,5.1,76,0.00,,,0.00,WUHU21623XXSP,2013-03-28 20:15:00,
2013-03-28 21:20:00,38.5,31.6,29.80,North,0,0.0,2.2,76,0.00,,,0.00,WUHU21623XXSP,2013-03-28 20:20:00,
2013-03-28 21:25:00,38.3,31.4,29.80,WNW,292,0.0,2.2,76,0.00,,,0.00,WUHU21623XXSP,2013-03-28 20:25:00,
2013-03-28 21:30:00,38.3,31.0,29.80,NNW,337,0.0,2.2,75,0.00,,,0.00,WUHU21623XXSP,2013-03-28 20:30:00,
2013-03-28 21:35:00,38.1,31.2,29.80,North,0,0.0,1.6,76,0.00,,,0.00,WUHU21623XXSP,2013-03-28 20:35:00,
2013-03-28 21:40:00,37.9,31.0,29.80,NW,315,7.6,7.6,76,0.00,,,0.00,WUHU21623XXSP,2013-03-28 20:40:00,
2013-03-28 21:45:00,37.9,31.0,29.80,WNW,292,8.7,8.7,76,0.00,,,0.00,WUHU21623XXSP,2013-03-28 20:45:00,
2013-03-28 21:50:00,37.9,31.0,29.80,NW,315,2.9,8.7,76,0.00,,,0.00,WUHU21623XXSP,2013-03-28 20:50:00,
2013-03-28 21:55:00,37.8,30.9,29.80,NNW,337,2.2,5.6,76,0.00,,,0.00,WUHU21623XXSP,2013-03-28 20:55:00,
2013-03-28 22:00:00,37.6,30.7,29.80,WNW,292,2.0,4.9,76,0.00,,,0.00,WUHU21623XXSP,2013-03-28 21:00:00,
2013-03-28 22:05:00,37.6,30.8,29.80,WNW,292,4.9,4.9,77,0.00,,,0.00,WUHU21623XXSP,2013-03-28 21:05:00,
2013-03-28 22:10:00,37.2,30.7,29.80,WNW,292,0.0,4.9,77,0.00,,,0.00,WUHU21623XXSP,2013-03-28 21:10:00,
2013-03-28 22:15:00,37.0,30.5,29.80,WNW,292,1.8,4.7,77,0.00,,,0.00,WUHU21623XXSP,2013-03-28 21:15:00,
2013-03-28 22:20:00,37.2,30.7,29.81,NW,315,2.2,2.5,77,0.00,,,0.00,WUHU21623XXSP,2013-03-28 21:20:00,
2013-03-28 22:25:00,37.2,31.0,29.80,NW,315,1.6,3.6,78,0.00,,,0.00,WUHU21623XXSP,2013-03-28 21:25:00,
2013-03-28 22:30:00,37.2,31.0,29.80,WNW,292,4.5,5.8,78,0.00,,,0.00,WUHU21623XXSP,2013-03-28 21:30:00,
2013-03-28 22:35:00,37.2,31.0,29.80,NW,315,2.5,5.8,78,0.00,,,0.00,WUHU21623XXSP,2013-03-28 21:35:00,
2013-03-28 22:40:00,37.2,31.0,29.80,NW,315,2.2,4.5,78,0.00,,,0.00,WUHU21623XXSP,2013-03-28 21:40:00,
2013-03-28 22:45:00,37.2,31.0,29.80,NW,315,2.9,2.9,78,0.00,,,0.00,WUHU21623XXSP,2013-03-28 21:45:00,
2013-03-28 22:50:00,37.2,31.0,29.80,NW,315,1.6,4.0,78,0.00,,,0.00,WUHU21623XXSP,2013-03-28 21:50:00,
2013-03-28 22:55:00,37.2,31.0,29.80,NW,315,1.6,4.7,78,0.00,,,0.00,WUHU21623XXSP,2013-03-28 21:55:00,
2013-03-28 23:00:00,37.0,30.8,29.80,ENE,67,0.0,4.7,78,0.00,,,0.00,WUHU21623XXSP,2013-03-28 22:00:00,
2013-03-28 23:05:00,37.2,31.3,29.80,WNW,292,9.4,9.4,79,0.00,,,0.00,WUHU21623XXSP,2013-03-28 22:05:00,
2013-03-28 23:10:00,37.4,31.5,29.80,NNW,337,0.0,9.4,79,0.00,,,0.00,WUHU21623XXSP,2013-03-28 22:10:00,
2013-03-28 23:15:00,37.6,31.3,29.80,NNW,337,7.4,7.4,78,0.00,,,0.00,WUHU21623XXSP,2013-03-28 22:15:00,
2013-03-28 23:20:00,37.2,31.0,29.80,NNW,337,2.2,7.4,78,0.00,,,0.00,WUHU21623XXSP,2013-03-28 22:20:00,
2013-03-28 23:25:00,36.9,30.0,29.80,North,0,3.1,7.2,76,0.00,,,0.00,WUHU21623XXSP,2013-03-28 22:25:00,
2013-03-28 23:30:00,36.5,29.6,29.80,NNW,337,4.5,7.2,76,0.00,,,0.00,WUHU21623XXSP,2013-03-28 22:30:00,
2013-03-28 23:35:00,36.3,29.1,29.81,NW,315,0.0,5.6,75,0.00,,,0.00,WUHU21623XXSP,2013-03-28 22:35:00,
2013-03-28 23:40:00,36.1,28.9,29.80,ENE,67,1.3,3.6,75,0.00,,,0.00,WUHU21623XXSP,2013-03-28 22:40:00,
2013-03-28 23:45:00,35.8,28.3,29.80,NNE,22,4.7,5.6,74,0.00,,,0.00,WUHU21623XXSP,2013-03-28 22:45:00,
2013-03-28 23:50:00,35.4,27.6,29.80,NNW,337,5.6,5.6,73,0.00,,,0.00,WUHU21623XXSP,2013-03-28 22:50:00,
2013-03-28 23:55:00,35.2,27.4,29.81,NNE,22,3.1,5.6,73,0.00,,,0.00,WUHU21623XXSP,2013-03-28 22:55:00,